When you browse on this site, cookies collect data to enhance your experience and personalize the content and advertising you see.
Visit our Privacy Policy to learn more. By continuing to use the site, you agree to this use of cookies and data.
  • In Hungary
  • List of Countries
  • For 7 days
  • Water Temperature
  • Satellite Maps
  • Weather Map
  • News
  • Weather Widgets
  • user-avatar
    Login

    Hourly Weather Ostrowieczko

    Today, 16 January, Wednesday

    Time Temperature Precipitation Wind Pressure Humidity
    00:00 +2°C° 0.1 mm 9 mps 743 mmHg 87%
    01:00 +2°C° 0 mm 8 mps 743 mmHg 86%
    02:00 +3°C° 0.5 mm 7 mps 744 mmHg 87%
    03:00 +3°C° 0.5 mm 7 mps 744 mmHg 89%
    04:00 +3°C° 0.5 mm 6 mps 744 mmHg 91%
    05:00 +3°C° 0.6 mm 6 mps 744 mmHg 91%
    06:00 +3°C° 0.6 mm 6 mps 745 mmHg 90%
    07:00 +3°C° 0 mm 6 mps 745 mmHg 91%
    08:00 +3°C° 0.2 mm 7 mps 746 mmHg 89%
    09:00 +4°C° 0.2 mm 7 mps 746 mmHg 86%
    10:00 +4°C° 0.2 mm 7 mps 746 mmHg 84%
    11:00 +4°C° 0 mm 7 mps 746 mmHg 82%
    12:00 +4°C° 0 mm 7 mps 746 mmHg 81%
    13:00 +4°C° 0 mm 7 mps 746 mmHg 81%
    14:00 +4°C° 0 mm 7 mps 746 mmHg 82%
    15:00 +4°C° 0 mm 6 mps 746 mmHg 83%
    16:00 +3°C° 0 mm 5 mps 746 mmHg 84%
    17:00 +3°C° 0 mm 5 mps 746 mmHg 85%
    18:00 +3°C° 0 mm 5 mps 746 mmHg 85%
    19:00 +2°C° 0 mm 5 mps 745 mmHg 85%
    20:00 +2°C° 0 mm 5 mps 745 mmHg 86%
    21:00 +1°C° 0 mm 5 mps 744 mmHg 86%
    22:00 +1°C° 0 mm 5 mps 744 mmHg 86%
    23:00 +1°C° 0 mm 5 mps 743 mmHg 85%

    Tomorrow, 17 January, Thursday

    Time Temperature Precipitation Wind Pressure Humidity
    00:00 +1°C° 0 mm 5 mps 743 mmHg 84%
    01:00 +1°C° 0 mm 5 mps 742 mmHg 83%
    02:00 0°C° 0 mm 5 mps 742 mmHg 81%
    03:00 0°C° 0 mm 5 mps 741 mmHg 79%
    04:00 -1°C° 0 mm 6 mps 741 mmHg 78%
    05:00 -1°C° 0 mm 6 mps 740 mmHg 76%
    06:00 -1°C° 0 mm 6 mps 740 mmHg 74%
    07:00 -1°C° 0 mm 6 mps 740 mmHg 72%
    08:00 0°C° 0 mm 7 mps 740 mmHg 74%
    09:00 +2°C° 0 mm 7 mps 740 mmHg 75%
    10:00 +1°C° 0 mm 8 mps 741 mmHg 77%
    11:00 +3°C° 0 mm 7 mps 741 mmHg 78%
    12:00 +3°C° 0 mm 7 mps 741 mmHg 78%
    13:00 +3°C° 0 mm 6 mps 741 mmHg 78%
    14:00 +3°C° 0 mm 6 mps 741 mmHg 79%
    15:00 +3°C° 0 mm 5 mps 741 mmHg 79%
    16:00 +3°C° 0 mm 5 mps 741 mmHg 79%
    17:00 +3°C° 0 mm 4 mps 741 mmHg 82%
    18:00 +3°C° 0 mm 4 mps 741 mmHg 85%
    19:00 +1°C° 0 mm 4 mps 741 mmHg 88%
    20:00 +2°C° 0.2 mm 5 mps 741 mmHg 84%
    21:00 +2°C° 0.2 mm 7 mps 741 mmHg 81%
    22:00 +1°C° 0.2 mm 9 mps 741 mmHg 77%
    23:00 +1°C° 0.1 mm 8 mps 741 mmHg 77%

    Day after tomorrow, 18 January, Friday

    Time Temperature Precipitation Wind Pressure Humidity
    00:00 0°C° 0.1 mm 8 mps 742 mmHg 77%
    01:00 0°C° 0.1 mm 7 mps 742 mmHg 77%
    02:00 -1°C° 0 mm 7 mps 743 mmHg 77%
    03:00 -1°C° 0 mm 7 mps 743 mmHg 76%
    04:00 -2°C° 0 mm 8 mps 744 mmHg 76%
    05:00 -2°C° 0 mm 8 mps 744 mmHg 76%
    06:00 -4°C° 0 mm 8 mps 745 mmHg 76%
    07:00 -4°C° 0 mm 8 mps 746 mmHg 76%
    08:00 -4°C° 0.1 mm 8 mps 747 mmHg 76%
    09:00 -2°C° 0.1 mm 8 mps 748 mmHg 76%
    10:00 -2°C° 0.1 mm 7 mps 749 mmHg 76%
    11:00 -2°C° 0 mm 7 mps 750 mmHg 73%
    12:00 -2°C° 0 mm 7 mps 751 mmHg 69%
    13:00 -2°C° 0 mm 6 mps 752 mmHg 66%
    14:00 -1°C° 0 mm 5 mps 753 mmHg 68%
    15:00 -2°C° 0 mm 4 mps 753 mmHg 71%
    16:00 -1°C° 0 mm 3 mps 754 mmHg 73%
    17:00 -2°C° 0 mm 3 mps 754 mmHg 76%
    18:00 -2°C° 0 mm 3 mps 754 mmHg 79%
    19:00 -2°C° 0 mm 3 mps 755 mmHg 81%
    20:00 -2°C° 0 mm 3 mps 755 mmHg 81%
    21:00 -4°C° 0 mm 4 mps 755 mmHg 81%
    22:00 -4°C° 0 mm 4 mps 756 mmHg 81%
    23:00 -4°C° 0 mm 4 mps 756 mmHg 79%

    19 January, Saturday

    Time Temperature Precipitation Wind Pressure Humidity
    00:00 -4°C° 0 mm 3 mps 756 mmHg 78%
    01:00 -4°C° 0 mm 3 mps 756 mmHg 77%
    02:00 -4°C° 0 mm 3 mps 756 mmHg 76%
    03:00 -4°C° 0 mm 3 mps 756 mmHg 74%
    04:00 -4°C° 0 mm 3 mps 756 mmHg 73%
    05:00 -4°C° 0 mm 3 mps 756 mmHg 73%
    06:00 -3°C° 0 mm 2 mps 756 mmHg 72%
    07:00 -3°C° 0 mm 2 mps 756 mmHg 71%
    08:00 -2°C° 0 mm 2 mps 756 mmHg 68%
    09:00 -2°C° 0 mm 2 mps 756 mmHg 65%
    10:00 -1°C° 0 mm 3 mps 756 mmHg 62%
    11:00 -1°C° 0 mm 2 mps 756 mmHg 58%
    12:00 +1°C° 0 mm 2 mps 756 mmHg 54%
    13:00 +2°C° 0 mm 2 mps 755 mmHg 51%
    14:00 +2°C° 0 mm 1 mps 755 mmHg 53%
    15:00 +1°C° 0 mm 1 mps 755 mmHg 55%
    16:00 +1°C° 0 mm 1 mps 755 mmHg 58%
    17:00 0°C° 0 mm 1 mps 755 mmHg 59%
    18:00 0°C° 0 mm 1 mps 755 mmHg 60%
    19:00 0°C° 0 mm 1 mps 755 mmHg 61%
    20:00 -1°C° 0 mm 1 mps 755 mmHg 61%
    21:00 -1°C° 0 mm 1 mps 754 mmHg 61%
    22:00 -1°C° 0 mm 1 mps 754 mmHg 61%
    23:00 -1°C° 0 mm 1 mps 754 mmHg 62%

    20 January, Sunday

    Time Temperature Precipitation Wind Pressure Humidity
    00:00 -1°C° 0 mm 1 mps 754 mmHg 62%
    01:00 -1°C° 0 mm 1 mps 754 mmHg 62%
    02:00 -1°C° 0 mm 1 mps 754 mmHg 63%
    03:00 -1°C° 0 mm 1 mps 753 mmHg 63%
    04:00 -2°C° 0 mm 1 mps 753 mmHg 63%
    05:00 -2°C° 0 mm 1 mps 753 mmHg 63%
    06:00 -2°C° 0 mm 1 mps 753 mmHg 63%
    07:00 -2°C° 0 mm 1 mps 753 mmHg 63%
    08:00 -1°C° 0 mm 1 mps 754 mmHg 60%
    09:00 -1°C° 0 mm 1 mps 754 mmHg 57%
    10:00 0°C° 0 mm 1 mps 754 mmHg 54%
    11:00 0°C° 0 mm 0 mps 754 mmHg 51%
    12:00 0°C° 0 mm 0 mps 754 mmHg 48%
    13:00 +1°C° 0 mm 0 mps 754 mmHg 45%
    14:00 0°C° 0 mm 0 mps 754 mmHg 48%
    15:00 -1°C° 0 mm 0 mps 754 mmHg 51%
    16:00 0°C° 0 mm 1 mps 754 mmHg 54%
    17:00 -1°C° 0 mm 1 mps 754 mmHg 55%
    18:00 -1°C° 0 mm 1 mps 755 mmHg 57%
    19:00 -1°C° 0 mm 1 mps 755 mmHg 58%
    20:00 -1°C° 0 mm 1 mps 755 mmHg 60%
    21:00 -4°C° 0 mm 2 mps 755 mmHg 62%
    22:00 -4°C° 0 mm 2 mps 756 mmHg 63%
    23:00 -4°C° 0 mm 2 mps 756 mmHg 68%

    21 January, Monday

    Time Temperature Precipitation Wind Pressure Humidity
    00:00 -4°C° 0 mm 2 mps 756 mmHg 73%
    01:00 -4°C° 0 mm 2 mps 756 mmHg 77%
    02:00 -5°C° 0 mm 3 mps 756 mmHg 81%
    03:00 -5°C° 0 mm 3 mps 757 mmHg 84%
    04:00 -4°C° 0 mm 3 mps 757 mmHg 88%
    05:00 -4°C° 0 mm 2 mps 757 mmHg 88%
    06:00 -4°C° 0 mm 2 mps 758 mmHg 88%
    07:00 -4°C° 0 mm 2 mps 758 mmHg 88%
    08:00 -4°C° 0 mm 2 mps 759 mmHg 82%
    09:00 -3°C° 0 mm 2 mps 759 mmHg 76%
    10:00 -3°C° 0 mm 2 mps 760 mmHg 70%
    11:00 0°C° 0 mm 1 mps 760 mmHg 65%
    12:00 0°C° 0 mm 1 mps 760 mmHg 61%
    13:00 +1°C° 0 mm 1 mps 760 mmHg 57%
    14:00 0°C° 0 mm 1 mps 760 mmHg 60%
    15:00 0°C° 0 mm 1 mps 760 mmHg 62%
    16:00 -1°C° 0 mm 1 mps 760 mmHg 65%
    17:00 -1°C° 0 mm 1 mps 760 mmHg 67%
    18:00 -2°C° 0 mm 1 mps 760 mmHg 69%
    19:00 -2°C° 0 mm 1 mps 760 mmHg 71%
    20:00 -2°C° 0 mm 1 mps 760 mmHg 72%
    21:00 -4°C° 0 mm 2 mps 760 mmHg 73%
    22:00 -4°C° 0 mm 2 mps 760 mmHg 74%
    23:00 -4°C° 0 mm 2 mps 760 mmHg 75%
    Show more